Weather History for PASX - February, 2014

Change the Weather History Date:

Monday, February 17, 2014

  Actual Average Record
Temperature  
Mean Temperature 14 °F -  
Max Temperature 24 °F 25 °F - (-1)
Min Temperature 3 °F 6 °F - (-1)
Degree Days  
Heating Degree Days 52    
Moisture  
Dew Point 8 °F    
Average Humidity 81    
Maximum Humidity 100    
Minimum Humidity 59    
Precipitation  
Precipitation 0.00 in - - ()
Sea Level Pressure  
Sea Level Pressure 29.10 in    
Wind  
Wind Speed 2 mph (ENE)    
Max Wind Speed 9 mph    
Max Gust Speed -    
Visibility 9 miles    
Events      
Averages and records for this station are not official NWS values.
T = Trace of Precipitation, MM = Missing Value Source: NWS Daily Summary

Daily Weather History Graph

Daily Weather History Graph

Search for Another Location

Airport or City:

Trip Planner

Search our weather history database for the weather conditions in past years. The results will help you decide how hot, cold, wet, or windy it might be!

Date:

Astronomy

Feb. 17, 2014 Rise Set
Actual Time 8:37 AM AKST 5:59 PM AKST
Civil Twilight 7:53 AM AKST 6:43 PM AKST
Nautical Twilight 7:04 AM AKST 7:33 PM AKST
Astronomical Twilight 6:15 AM AKST 8:22 PM AKST
Moon 10:05 PM AKST (2/17) 8:51 AM AKST (2/17)
Length of Visible Light 10h 50m
Length of Day
9h 22m
Waning Gibbous, 92% of the Moon is Illuminated
Feb 17
Waning Gibbous
Feb 22
Last Quarter
Feb 28
New
Mar 8
First Quarter
Mar 16
Full

Hourly Weather History & Observations

Time (AKST) Temp. Windchill Dew Point Humidity Pressure Visibility Wind Dir Wind Speed Gust Speed Precip Events Conditions
12:16 AM 8.6 °F 2.0 °F 5.0 °F 85% 29.06 in 10.0 mi ENE 3.5 mph - N/A   Mostly Cloudy
12:36 AM 8.6 °F 2.0 °F 3.2 °F 79% 29.06 in 10.0 mi NE 3.5 mph - N/A   Mostly Cloudy
12:56 AM 8.6 °F 2.0 °F 3.2 °F 79% 29.07 in 10.0 mi NE 3.5 mph - N/A   Partly Cloudy
1:16 AM 5.0 °F -2.1 °F 1.4 °F 85% 29.07 in 10.0 mi ESE 3.5 mph - N/A   Clear
1:36 AM 3.2 °F -6.2 °F 3.2 °F 100% 29.07 in 10.0 mi East 4.6 mph - N/A   Scattered Clouds
1:56 AM 6.8 °F -0.1 °F 1.4 °F 79% 29.06 in 10.0 mi NE 3.5 mph - N/A   Mostly Cloudy
2:16 AM 6.8 °F - -0.4 °F 72% 29.07 in 10.0 mi Calm Calm - N/A   Mostly Cloudy
2:36 AM 3.2 °F - 1.4 °F 92% 29.07 in 10.0 mi Calm Calm - N/A   Mostly Cloudy
2:56 AM 5.0 °F - 1.4 °F 85% 29.07 in 10.0 mi Calm Calm - N/A   Mostly Cloudy
3:16 AM 5.0 °F - 1.4 °F 85% 29.07 in 10.0 mi Calm Calm - N/A   Mostly Cloudy
3:36 AM 5.0 °F - 1.4 °F 85% 29.07 in 10.0 mi Calm Calm - N/A   Overcast
3:56 AM 5.0 °F - 1.4 °F 85% 29.07 in 10.0 mi Calm Calm - N/A   Overcast
4:16 AM 6.8 °F -2.0 °F 1.4 °F 79% 29.06 in 10.0 mi East 4.6 mph - N/A   Overcast
4:36 AM 6.8 °F -0.1 °F 5.0 °F 92% 29.06 in 10.0 mi ENE 3.5 mph - N/A   Overcast
4:56 AM 6.8 °F -0.1 °F 3.2 °F 85% 29.06 in 10.0 mi East 3.5 mph - N/A   Overcast
5:16 AM 8.6 °F - 3.2 °F 79% 29.06 in 10.0 mi Calm Calm - N/A   Overcast
5:36 AM 6.8 °F -0.1 °F 3.2 °F 85% 29.06 in 10.0 mi East 3.5 mph - N/A   Overcast
5:56 AM 8.6 °F 2.0 °F 6.8 °F 92% 29.06 in 10.0 mi ENE 3.5 mph - N/A   Overcast
6:16 AM 8.6 °F - 3.2 °F 79% 29.05 in 4.0 mi Calm Calm - N/A   Overcast
6:36 AM 8.6 °F - 5.0 °F 85% 29.05 in 5.0 mi Calm Calm - N/A   Overcast
6:56 AM 8.6 °F - 5.0 °F 85% 29.05 in 9.0 mi Calm Calm - N/A   Overcast
7:16 AM 10.4 °F - 6.8 °F 85% 29.05 in 5.0 mi Calm Calm - N/A   Overcast
7:36 AM 10.4 °F - 6.8 °F 85% 29.05 in 3.0 mi Calm Calm - N/A   Overcast
7:56 AM 10.4 °F - 6.8 °F 85% 29.04 in 2.0 mi Calm Calm - N/A   Overcast
8:16 AM 10.4 °F - 8.6 °F 92% 29.04 in 3.0 mi Calm Calm - N/A   Overcast
8:36 AM 10.4 °F - 8.6 °F 92% 29.04 in 2.0 mi Calm Calm - N/A   Overcast
8:56 AM 10.4 °F - 8.6 °F 92% 29.04 in 2.5 mi Calm Calm - N/A   Overcast
9:16 AM 10.4 °F - 8.6 °F 92% 29.04 in 2.0 mi Calm Calm - N/A   Overcast
9:36 AM 12.2 °F - 8.6 °F 85% 29.05 in 3.0 mi Calm Calm - N/A   Overcast
9:56 AM 12.2 °F - 8.6 °F 85% 29.05 in 3.0 mi Calm Calm - N/A   Overcast
10:16 AM 12.2 °F - 10.4 °F 92% 29.05 in 3.0 mi Calm Calm - N/A   Overcast
10:36 AM 14.0 °F - 12.2 °F 93% 29.05 in 10.0 mi Calm Calm - N/A   Overcast
10:56 AM 15.8 °F - 12.2 °F 86% 29.05 in 10.0 mi Calm Calm - N/A   Mostly Cloudy
11:16 AM 17.6 °F - 15.8 °F 93% 29.06 in 10.0 mi Calm Calm - N/A   Mostly Cloudy
11:36 AM 19.4 °F - 15.8 °F 86% 29.06 in 10.0 mi Calm Calm - N/A   Overcast
11:56 AM 19.4 °F - 17.6 °F 93% 29.06 in 10.0 mi Calm Calm - N/A   Scattered Clouds
12:16 PM 21.2 °F - 17.6 °F 86% 29.06 in 10.0 mi Calm Calm - N/A   Mostly Cloudy
12:36 PM 23.0 °F 18.4 °F 17.6 °F 80% 29.06 in 10.0 mi ESE 3.5 mph - N/A   Overcast
12:56 PM 21.2 °F 14.9 °F 15.8 °F 80% 29.06 in 10.0 mi ENE 4.6 mph - N/A   Overcast
1:16 PM 23.0 °F 15.8 °F 15.8 °F 74% 29.07 in 10.0 mi North 5.8 mph - N/A   Overcast
1:36 PM 23.0 °F 13.1 °F 15.8 °F 74% 29.06 in 10.0 mi ENE 9.2 mph - N/A   Overcast
1:56 PM 23.0 °F 18.4 °F 15.8 °F 74% 29.07 in 10.0 mi East 3.5 mph - N/A   Mostly Cloudy
2:16 PM 24.8 °F 20.5 °F 15.8 °F 69% 29.07 in 10.0 mi ENE 3.5 mph - N/A   Overcast
2:36 PM 24.8 °F 19.1 °F 15.8 °F 69% 29.07 in 10.0 mi East 4.6 mph - N/A   Overcast
2:56 PM 24.8 °F 16.9 °F 15.8 °F 69% 29.07 in 10.0 mi ENE 6.9 mph - N/A   Scattered Clouds
3:16 PM 24.8 °F 17.9 °F 15.8 °F 69% 29.07 in 10.0 mi ENE 5.8 mph - N/A   Clear
3:36 PM 24.8 °F 16.1 °F 15.8 °F 69% 29.08 in 10.0 mi East 8.1 mph - N/A   Clear
3:56 PM 24.8 °F 17.9 °F 15.8 °F 69% 29.08 in 10.0 mi NE 5.8 mph - N/A   Clear
4:16 PM 24.8 °F - 14.0 °F 64% 29.08 in 10.0 mi Calm Calm - N/A   Scattered Clouds
4:36 PM 24.8 °F 20.5 °F 12.2 °F 59% 29.09 in 10.0 mi NE 3.5 mph - N/A   Scattered Clouds
4:56 PM 24.8 °F 17.9 °F 15.8 °F 69% 29.09 in 10.0 mi ENE 5.8 mph - N/A   Mostly Cloudy
5:16 PM 24.8 °F 20.5 °F 14.0 °F 64% 29.10 in 10.0 mi ENE 3.5 mph - N/A   Overcast
5:36 PM 24.8 °F - 12.2 °F 59% 29.11 in 10.0 mi Calm Calm - N/A   Overcast
5:56 PM 24.8 °F - 12.2 °F 59% 29.12 in 10.0 mi Calm Calm - N/A   Overcast
6:16 PM 21.2 °F - 12.2 °F 68% 29.12 in 10.0 mi Calm Calm - N/A   Overcast
6:36 PM 21.2 °F - 12.2 °F 68% 29.13 in 10.0 mi Calm Calm - N/A   Scattered Clouds
6:56 PM 17.6 °F - 12.2 °F 79% 29.14 in 10.0 mi Calm Calm - N/A   Scattered Clouds
7:16 PM 17.6 °F - 10.4 °F 73% 29.15 in 10.0 mi Calm Calm - N/A   Clear
7:36 PM 14.0 °F - 10.4 °F 86% 29.16 in 10.0 mi Calm Calm - N/A   Partly Cloudy
7:56 PM 14.0 °F - 8.6 °F 79% 29.17 in 10.0 mi Calm Calm - N/A   Scattered Clouds
8:16 PM 12.2 °F 6.1 °F 8.6 °F 85% 29.17 in 10.0 mi ENE 3.5 mph - N/A   Mostly Cloudy
8:36 PM 10.4 °F 4.0 °F 6.8 °F 85% 29.19 in 10.0 mi East 3.5 mph - N/A   Partly Cloudy
8:56 PM 10.4 °F - 6.8 °F 85% 29.20 in 10.0 mi Calm Calm - N/A   Clear
9:16 PM 10.4 °F - 6.8 °F 85% 29.20 in 10.0 mi Calm Calm - N/A   Clear
9:36 PM 8.6 °F 2.0 °F 5.0 °F 85% 29.21 in 10.0 mi East 3.5 mph - N/A   Clear
9:56 PM 8.6 °F 2.0 °F 6.8 °F 92% 29.22 in 10.0 mi ENE 3.5 mph - N/A   Clear
10:16 PM 8.6 °F -1.3 °F 3.2 °F 79% 29.22 in 10.0 mi East 5.8 mph - N/A   Clear
10:36 PM 8.6 °F 2.0 °F 6.8 °F 92% 29.23 in 10.0 mi ENE 3.5 mph - N/A   Clear
10:56 PM 6.8 °F - 1.4 °F 79% 29.23 in 10.0 mi Calm Calm - N/A   Clear
11:16 PM 6.8 °F -0.1 °F 3.2 °F 85% 29.24 in 10.0 mi ENE 3.5 mph - N/A   Clear
11:36 PM 6.8 °F -0.1 °F 1.4 °F 79% 29.24 in 10.0 mi ENE 3.5 mph - N/A   Clear
11:56 PM 5.0 °F - -0.4 °F 78% 29.24 in 10.0 mi Calm Calm - N/A   Clear